Regional Weather Roundup
Issued by NWS

Home | Current Version | Previous Version | Graphics & Text | Print | Product List | Glossary On
Versions: 1 2 3 4 5 6 7 8 9 10 11 12 13 14 15 16 17 18 19 20 21 22 23 24 25 26 27 28 29 30 31 32 33 34 35 36 37 38 39 40 41 42 43 44 45 46 47 48 49 50
000
ASUS43 KTOP 291759
RWRKS

WEATHER ROUNDUP FOR KANSAS
NATIONAL WEATHER SERVICE GOODLAND KS
1200 PM CST THU JAN 29 2015

NOTE:  "FAIR" INDICATES FEW OR NO CLOUDS BELOW 12,000 FEET WITH NO
SIGNIFICANT WEATHER AND/OR OBSTRUCTIONS TO VISIBILITY.

KSZ001>006-013>018-027>032-041>047-291900-
NORTHWEST KANSAS

CITY           SKY/WX    TMP DP  RH WIND       PRES   REMARKS
GOODLAND       SUNNY     40  27  59 N16       30.52R WCI  31
6HR MIN TEMP:  29; 6HR MAX TEMP:  41;

HAYS           SUNNY     43  21  42 N22G28    30.51R
HILL CITY      FAIR      43  25  49 N14G24    30.52R
6HR MIN TEMP:  30; 6HR MAX TEMP:  43;

RUSSELL        SUNNY     45  25  45 N20G28    30.48R
6HR MIN TEMP:  33; 6HR MAX TEMP:  45;

$$

KSZ061>065-074>080-084>089-291900-
SOUTHWEST KANSAS

CITY           SKY/WX    TMP DP  RH WIND       PRES   REMARKS
DODGE CITY     MOSUNNY   44  23  43 N20G32    30.51R
6HR MIN TEMP:  33; 6HR MAX TEMP:  45;

ELKHART          N/A     45  25  45 N13         N/A
GARDEN CITY    SUNNY     43  25  49 N21       30.51S
6HR MIN TEMP:  33; 6HR MAX TEMP:  43;

LIBERAL        CLOUDY    45  28  53 N21G26    30.54S
$$

KSZ066>073-081>083-090>101-291900-
SOUTHEAST KANSAS

CITY           SKY/WX    TMP DP  RH WIND       PRES   REMARKS
CHANUTE        CLOUDY    45  30  55 NW20G30   30.40R
6HR MIN TEMP:  40; 6HR MAX TEMP:  45;

COFFEYVILLE    CLOUDY    45  30  55 N22G30    30.41S
6HR MIN TEMP:  42; 6HR MAX TEMP:  49;

HUTCHINSON     SUNNY     47  26  44 N17G24    30.46S
6HR MIN TEMP:  40; 6HR MAX TEMP:  47;

MEDICINE LODGE   N/A     46  26  45 N22G31    30.48S
NEWTON         CLOUDY    45  25  45 N25G35    30.45S
PARSONS        CLOUDY    47  31  53 N18       30.40S
6HR MIN TEMP:  42; 6HR MAX TEMP:  47;

WICHITA INTL   PTSUNNY   45  27  49 N23G33    30.45R
6HR MIN TEMP:  41; 6HR MAX TEMP:  47;

WICHITA JABRA  CLOUDY    45  27  49 N21G31    30.44R
6HR MIN TEMP:  39; 6HR MAX TEMP:  45;

WINFIELD       CLOUDY    45  28  51 N20G26    30.46R
6HR MIN TEMP:  41; 6HR MAX TEMP:  45;

$$

KSZ007>012-019>026-033>040-048>060-102>105-291900-
NORTHEAST KANSAS

CITY           SKY/WX    TMP DP  RH WIND       PRES   REMARKS
CONCORDIA      CLOUDY    43  27  53 N16G28    30.46R
6HR MIN TEMP:  39; 6HR MAX TEMP:  44;

EMPORIA        CLOUDY    43  28  55 N22G29    30.41R
6HR MIN TEMP:  39; 6HR MAX TEMP:  43;

LAWRENCE       CLOUDY    42  27  55 N28G33    30.39R
6HR MIN TEMP:  38; 6HR MAX TEMP:  43;

MANHATTAN      CLOUDY    45  28  51 N12G22    30.44R
6HR MIN TEMP:  40; 6HR MAX TEMP:  45;

OLATHE IND     CLOUDY    41  27  57 NW21G29   30.37R
6HR MIN TEMP:  37; 6HR MAX TEMP:  41;

OLATHE EXE     CLOUDY    41  27  57 N21G28    30.35R
6HR MIN TEMP:  37; 6HR MAX TEMP:  41;

SALINA         MOSUNNY   48  26  42 N23G32    30.47R
6HR MIN TEMP:  39; 6HR MAX TEMP:  48;

TOPEKA BILLARD CLOUDY    42  28  57 NW21G31   30.41R
6HR MIN TEMP:  39; 6HR MAX TEMP:  43;

TOPEKA FORBES  CLOUDY    44  28  53 NW22G29   30.40R
6HR MIN TEMP:  40; 6HR MAX TEMP:  44;

$$



USA.gov is the U.S. government's official web portal to all federal, state and local government web resources and services.